     2.00           OBSERVATION DATA    G (GPS)             RINEX VERSION / TYPE
teqc 1999Jan4 Victoria Andreatta 19990104 22:53:32UTC       PGM / RUN BY / DATE
Linux 2.0.30|PentPro|gcc|Linux|486/DX+                      COMMENT
BIT 2 OF LLI FLAGS DATA COLLECTED UNDER A/S CONDITION       COMMENT
                                                            MARKER NAME
                                                            OBSERVER / AGENCY
0 TURBOROGUE 98.05.13                                       REC # / TYPE / VERS
-Unknown- -Unknown-                                         ANT # / TYPE
 -1286002.5542 -4719339.2304  4082020.9102                  APPROX POSITION XYZ
        0.0000        0.0000        0.0000                  ANTENNA: DELTA H/E/N
     1     1                                                WAVELENGTH FACT L1/2
     5    L1    L2    C1    P2    P1                        # / TYPES OF OBSERV
SNR is mapped to RINEX snr flag value [1,4-9]               COMMENT
SNR: >316 >100 >31.6 >10 >3.2 >0 bad=0                      COMMENT
L1 & L2: 9 8 7 6 5 4 1                                      COMMENT
  1999     1     2     0     0    0.000000      GPS         TIME OF FIRST OBS
                                                            END OF HEADER
 99  1  2  0  0  0.0000000  0  7G27G15G 4G 9G26G 2G 7
 -19410973.674 6 -15125409.393 6  21700959.957    21700957.955
 -11581613.397 5  -9024602.511 4  22798284.198    22798281.424
  -6090709.656 4  -4745996.421 4  23888122.442    23888117.993
  -4490484.148 4  -3499072.067 4  24300567.750    24300564.921
  -8474966.694 4  -6603845.126 4  23461626.578    23461624.192
 -23211474.892 9 -18086831.902 9  20719988.351    20719986.835
 -23784967.515 9 -18533707.217 9  20427203.766    20427201.915
 99  1  2  0  0 30.0000000  0  7G27G15G 4G 9G26G 2G 7
 -19318611.285 6 -15053438.703 6  21718535.952    21718534.029
 -11527779.333 5  -8982653.863 4  22808528.446    22808525.536
  -6203343.112 4  -4833762.501 4  23866689.311    23866685.729
  -4589233.826 4  -3576019.652 4  24281776.330    24281773.198
  -8434454.794 4  -6572277.367 4  23469335.724    23469332.970
 -23205696.956 9 -18082329.586 9  20721087.917    20721086.636
 -23807004.014 9 -18550878.471 9  20423010.413    20423008.492
 99  1  2  0  1  0.0000000  0  7G27G15G 4G 9G26G 2G 7
 -19225875.335 6 -14981176.927 5  21736182.637    21736181.124
 -11473389.460 5  -8940272.115 4  22818878.140    22818875.412
  -6315931.202 4  -4921493.229 4  23845264.378    23845260.121
  -4687785.356 4  -3652812.875 4  24263021.677    24263018.462
  -8393521.164 4  -6540380.984 4  23477125.955    23477122.682
 -23199656.905 9 -18077623.024 9  20722237.370    20722236.003
 -23828655.833 9 -18567749.975 9  20418890.203    20418888.270
 99  1  2  0  1 30.0000000  0  7G27G15G 4G 9G26G 2G 7
 -19132768.523 6 -14908626.167 6  21753900.646    21753898.760
 -11418445.596 5  -8897458.680 4  22829333.444    22829330.978
  -6428463.377 4  -5009180.393 4  23823848.265    23823846.429
  -4786151.134 4  -3729461.310 4  24244303.178    24244300.775
  -8352158.846 4  -6508150.559 4  23484996.474    23484993.601
 -23193373.464 9 -18072726.810 9  20723433.029    20723431.466
 -23849914.815 9 -18584315.371 9  20414844.777    20414842.790
 99  1  2  0  2  0.0000000  0  7G27G15G 4G 9G26G 2G 7
 -19039285.224 6 -14835782.040 5  21771689.688    21771687.806
 -11362952.408 5  -8854217.212 4  22839893.846    22839891.197
  -6540926.883 4  -5096814.139 4  23802448.024    23802444.927
  -4884331.485 4  -3805965.273 4  24225621.340    24225617.909
  -8310370.771 4  -6475588.400 4  23492948.472    23492945.456
 -23186854.202 9 -18067646.840 9  20724673.679    20724671.906
 -23870791.659 9 -18600582.998 9  20410871.910    20410869.966
 99  1  2  0  2 30.0000000  0  7G27G15G 4G 9G26G 2G 7
 -18945427.772 6 -14762646.365 5  21789550.543    21789548.255
 -11306915.097 5  -8810551.754 4  22850557.800    22850554.761
  -6653320.141 4  -5184393.016 4  23781060.936    23781055.962
  -4982330.726 4  -3882328.083 4  24206971.470    24206967.917
  -8268177.999 4  -6442710.887 4  23500977.986    23500974.693
 -23180096.184 9 -18062380.826 9  20725959.597    20725957.861
 -23891290.400 9 -18616555.999 9  20406970.790    20406969.132
 99  1  2  0  3  0.0000000  0  7G27G15G 4G 9G26G 2G 7
 -18851189.205 6 -14689213.714 5  21807483.626    21807481.172
 -11250334.100 5  -8766462.644 4  22861324.605    22861321.341
  -6765629.821 4  -5271906.848 4  23759687.141    23759685.371
  -5080148.139 4  -3958549.222 4  24188356.785    24188354.776
  -8225592.032 4  -6409526.996 4  23509081.363    23509078.261
 -23173089.120 9 -18056920.747 9  20727292.964    20727291.260
 -23911405.792 9 -18632230.287 9  20403142.873    20403141.311
 99  1  2  0  3 30.0000000  0  7G27G15G 4G 9G26G 2G 7
 -18756572.994 6 -14615486.795 5  21825488.721    21825486.029
 -11193209.439 5  -8721949.899 4  22872195.084    22872191.988
  -6877853.322 4  -5359353.605 4  23738331.522    23738328.890
  -5177773.240 4  -4034620.565 4  24169779.151    24169776.414
  -8182601.877 4  -6376028.154 4  23517262.188    23517258.511
 -23165822.085 9 -18051258.093 9  20728675.759    20728674.059
 -23931141.597 9 -18647608.791 9  20399387.213    20399385.642
 99  1  2  0  4  0.0000000  0  7G27G15G 4G 9G26G 2G 7
 -18661591.457 6 -14541475.213 5  21843562.993    21843560.207
 -11135540.804 5  -8677013.279 4  22883169.240    22883166.004
  -6989998.584 4  -5446739.241 4  23716992.983    23716988.179
  -5275188.319 4  -4110528.191 4  24151241.990    24151239.043
  -8139207.343 4  -6342214.212 4  23525520.180    23525515.790
 -23158273.902 9 -18045376.364 9  20730111.997    20730110.463
 -23950512.087 9 -18662702.636 9  20395701.122    20395699.599
 99  1  2  0  4 30.0000000  0  7G27G15G 4G 9G26G 2G 7
 -18566254.016 6 -14467186.297 5  21861705.072    21861702.506
 -11077334.184 5  -8631657.462 4  22894245.410    22894242.455
  -7102082.680 4  -5534077.306 4  23695662.145    23695660.330
  -5372388.473 4  -4186268.370 4  24132745.821    24132742.828
  -8095407.924 4  -6308084.773 4  23533855.052    23533850.599
 -23150435.895 9 -18039268.801 9  20731603.539    20731602.026
 -23969512.215 9 -18677507.890 9  20392085.448    20392083.856
 99  1  2  0  5  0.0000000  0  7G27G15G 4G 9G26G 2G 7
 -18470569.058 6 -14392626.587 5  21879913.182    21879910.640
 -11018594.021 5  -8585885.892 4  22905423.242    22905420.103
  -7214103.129 4  -5621365.804 4  23674344.815    23674342.600
  -5469361.426 4  -4261831.549 4  24114292.121    24114289.483
  -8051191.945 4  -6273630.723 4  23542269.459    23542264.455
 -23142311.791 9 -18032938.302 9  20733149.439    20733147.902
 -23988146.744 9 -18692028.260 9  20388539.315    20388537.749
 99  1  2  0  5 30.0000000  0  7G27G15G 4G 9G26G 2G 7
 -18374560.906 6 -14317815.041 5  21898183.117    21898180.593
 -10959324.602 5  -8539701.909 4  22916701.706    22916698.756
  -7326063.717 4  -5708607.610 4  23653041.259    23653037.372
  -5566107.624 4  -4337218.045 4  24095882.180    24095878.608
  -8006563.515 4  -6238855.292 4  23550761.848    23550757.772
 -23133900.964 9 -18026384.383 9  20734749.937    20734748.291
 -24006419.446 9 -18706266.691 9  20385062.226    20385060.556
 99  1  2  0  6  0.0000000  0  7G27G15G 4G 9G26G 2G 7
 -18278212.546 6 -14242738.399 5  21916517.803    21916515.149
 -10899513.564 5  -8493095.888 4  22928083.079    22928080.571
  -7437934.094 4  -5795779.125 4  23631753.225    23631748.828
  -5662627.503 4  -4412428.185 4  24077513.949    24077510.732
  -7961523.253 4  -6203758.945 4  23559331.650    23559329.185
 -23125184.068 9 -18019591.972 9  20736408.641    20736407.136
 -24024311.570 9 -18720208.569 9  20381657.572    20381655.829
 99  1  2  0  6 30.0000000  0  7G27G15G 4G 9G26G 2G 7
 -18181526.488 6 -14167398.614 5  21934916.391    21934914.132
 -10839175.226 5  -8446078.984 4  22939564.725    22939562.437
  -7549718.606 4  -5882883.767 4  23610479.189    23610476.329
  -5758935.141 4  -4487472.969 4  24059187.692    24059184.405
  -7916075.938 4  -6168345.419 4  23567979.585    23567977.213
 -23116186.923 9 -18012581.187 9  20738120.793    20738119.258
 -24041833.772 9 -18733862.199 9  20378323.190    20378321.476
 99  1  2  0  7  0.0000000  0  7G27G15G 4G 9G26G 2G 7
 -18084500.063 6 -14091793.612 5  21953379.693    21953377.630
 -10778306.965 5  -8398649.146 4  22951147.567    22951145.382
  -7661406.592 4  -5969913.183 4  23589226.385    23589223.060
  -5855031.465 4  -4562353.085 4  24040901.121    24040897.731
  -7870220.133 4  -6132613.600 4  23576705.329    23576703.353
 -23106918.635 9 -18005359.116 9  20739884.520    20739882.891
 -24058983.578 9 -18747225.653 9  20375059.621    20375057.925
 99  1  2  0  7 30.0000000  0  7G27G15G 4G 9G26G 2G 7
 -17987121.952 6 -14015914.564 5  21971910.130    21971908.076
 -10716904.835 5  -8350803.309 4  22962832.162    22962829.873
  -7772995.103 4  -6056865.089 4  23567992.086    23567987.971
  -5950923.194 4  -4637073.783 4  24022653.525    24022649.717
  -7823959.398 4  -6096566.269 4  23585508.887    23585505.466
 -23097378.162 9 -17997924.953 9  20741700.017    20741698.437
 -24075760.301 9 -18760298.394 9  20371867.031    20371865.320
 99  1  2  0  8  0.0000000  0  7G27G15G 4G 9G26G 2G 7
 -17889371.426 6 -13939745.328 5  21990511.541    21990509.328
 -10654966.123 5  -8302539.354 4  22974618.494    22974615.928
  -7884475.040 4  -6143732.394 4  23546777.827    23546773.551
  -6046602.713 4  -4711629.126 4  24004445.717    24004442.746
  -7777279.053 4  -6060191.979 4  23594392.605    23594388.802
 -23087571.016 9 -17990282.996 9  20743566.439    20743564.918
 -24092159.517 9 -18773076.974 9  20368746.358    20368744.580
 99  1  2  0  8 30.0000000  0  7G27G15G 4G 9G26G 2G 7
 -17791268.488 6 -13863301.490 5  22009179.779    22009177.473
 -10592506.776 4  -8253869.706 4  22986504.222    22986501.521
  -7995862.635 4  -6230527.766 4  23525580.592    23525577.278
  -6142063.559 4  -4786014.076 4  23986280.087    23986277.264
  -7730195.835 4  -6023503.742 4  23603352.803    23603348.816
 -23077518.050 9 -17982449.493 9  20745479.380    20745477.781
 -24108190.307 9 -18785568.470 9  20365695.749    20365694.075
 99  1  2  0  9  0.0000000  0  7G27G15G 4G 9G26G 2G 7
 -17692818.273 6 -13786587.036 5  22027913.989    22027912.146
 -10529529.094 4  -8204796.155 4  22998488.649    22998485.934
  -8107143.255 4  -6317239.793 4  23504404.701    23504401.338
  -6237300.632 4  -4860224.661 4  23968157.279    23968154.160
  -7682732.925 4  -5986519.659 4  23612384.673    23612380.000
 -23067206.543 9 -17974414.529 9  20747441.724    20747439.948
 -24123860.187 9 -18797778.737 9  20362713.843    20362712.214
 99  1  2  0  9 30.0000000  0  7G27G15G 4G 9G26G 2G 7
 -17594030.553 6 -13709609.585 5  22046712.888    22046710.584
 -10466041.771 4  -8155325.506 4  23010570.062    23010567.019
  -8218305.109 4  -6403859.237 4  23483251.667    23483247.425
  -6332321.482 4  -4934266.765 4  23950074.691    23950071.950
  -7634899.594 4  -5949246.908 4  23621486.169    23621482.928
 -23056622.390 9 -17966167.116 9  20749455.758    20749453.959
 -24139183.320 9 -18809718.809 9  20359797.931    20359796.360
 99  1  2  0 10  0.0000000  0  7G27G15G 4G 9G26G 2G 7
 -17494899.517 5 -13632364.630 5  22065577.253    22065574.649
 -10402040.147 4  -8105454.091 4  23022748.952    23022746.287
  -8329333.156 4  -6490374.428 4  23462123.287    23462120.048
  -6427104.459 4  -5008123.516 4  23932038.126    23932034.268
  -7586692.800 4  -5911683.141 4  23630658.795    23630657.226
 -23045747.921 9 -17957693.484 9  20751524.902    20751523.332
 -24154150.691 9 -18821381.662 9  20356949.712    20356948.131
 99  1  2  0 10 30.0000000  0  7G27G15G 4G 9G26G 2G 7
 -17395447.085 5 -13554869.237 5  22084501.925    22084500.132
 -10337532.621 4  -8055188.465 4  23035024.288    23035021.654
  -8440245.809 4  -6576799.754 4  23441016.611    23441014.250
  -6521649.910 4  -5081795.114 4  23914047.397    23914043.792
  -7538135.739 4  -5873846.471 4  23639898.623    23639896.857
 -23034580.925 9 -17948991.904 9  20753649.787    20753648.318
 -24168775.108 9 -18832777.277 9  20354166.583    20354165.051
 99  1  2  0 11  0.0000000  0  7G27G15G 4G 9G26G 2G 7
 -17295675.327 5 -13477125.001 5  22103487.302    22103485.923
 -10272521.288 4  -8004530.255 4  23047395.414    23047392.823
  -8551041.509 4  -6663133.847 4  23419933.882    23419930.057
  -6615972.732 4  -5155293.275 4  23896098.033    23896094.678
  -7489223.592 4  -5835733.096 4  23649205.872    23649204.868
 -23023118.430 9 -17940060.069 9  20755831.006    20755829.484
 -24183063.820 9 -18843911.306 9  20351447.521    20351445.963
 99  1  2  0 11 30.0000000  0  7G27G15G 4G 9G26G 2G 7
 -17195595.867 5 -13399140.999 5  22122532.323    22122530.414
 -10207008.599 4  -7953481.380 4  23059861.973    23059859.768
  -8661729.491 4  -6749384.044 4  23398871.037    23398867.142
  -6710074.653 4  -5228619.310 4  23878189.855    23878187.011
  -7439945.967 4  -5797334.967 4  23658584.220    23658581.737
 -23011377.072 9 -17930910.937 9  20758065.520    20758063.659
 -24197000.142 9 -18854770.744 9  20348795.465    20348793.868
 99  1  2  0 12  0.0000000  0  7G27G15G 4G 9G26G 2G 7
 -17095208.037 5 -13320916.721 5  22141636.041    22141633.529
 -10140988.259 4  -7902036.939 4  23072425.286    23072423.200
  -8772310.890 4  -6835551.188 4  23377826.943    23377823.398
  -6803940.650 4  -5301761.476 4  23860328.640    23860325.520
  -7390305.781 4  -5758654.326 4  23668030.359    23668027.536
 -22999363.210 9 -17921549.462 9  20760351.637    20760349.890
 -24210559.392 9 -18865336.358 9  20346215.298    20346213.657
 99  1  2  0 12 30.0000000  0  7G27G15G 4G 9G26G 2G 7
 -16994519.641 5 -13242458.234 5  22160795.913    22160793.800
 -10074458.230 4  -7850195.344 4  23085085.655    23085083.397
  -8882769.527 4  -6921622.654 4  23356806.746    23356803.727
  -6897568.586 4  -5374718.139 4  23842511.911    23842508.294
  -7340287.853 4  -5719679.317 4  23677548.364    23677544.899
 -22987078.959 9 -17911977.293 9  20762689.193    20762687.603
 -24223729.529 9 -18875598.764 9  20343709.366    20343707.601
 99  1  2  0 13  0.0000000  0  7G27G15G 4G 9G26G 2G 7
 -16893528.192 5 -13163763.593 5  22180013.730    22180012.005
 -10007426.650 4  -7797962.924 4  23097841.516    23097838.742
  -8993089.856 4  -7007586.374 4  23335814.334    23335810.498
  -6990963.195 4  -5447492.990 4  23824738.385    23824735.770
  -7289894.646 4  -5680411.874 4  23687139.139    23687134.475
 -22974527.883 9 -17902197.209 9  20765077.497    20765075.863
 -24236507.213 9 -18885555.365 9  20341277.746    20341275.985
 99  1  2  0 13 30.0000000  0  7G27G15G 4G 9G26G 2G 7
 -16792223.942 5 -13084825.220 5  22199291.673    22199289.640
  -9939885.485 4  -7745333.424 4  23110694.001    23110691.408
  -9103263.378 4  -7093435.659 4  23314848.295    23314844.729
  -7084101.526 4  -5520068.157 4  23807014.549    23807012.572
  -7239121.856 4  -5640848.673 4  23696800.446    23696796.850
 -22961693.763 9 -17892196.573 9  20767519.792    20767518.034
 -24248874.423 9 -18895192.114 9  20338924.028    20338922.365
 99  1  2  0 14  0.0000000  0  7G27G15G 4G 9G26G 2G 7
 -16690601.156 5 -13005638.638 5  22218629.952    22218627.751
  -9871843.272 4  -7692313.496 4  23123642.123    23123639.741
  -9213292.606 4  -7179172.551 4  23293909.487    23293907.138
  -7176985.957 4  -5592445.466 4  23789339.841    23789336.475
  -7187981.504 4  -5600999.043 4  23706531.004    23706528.982
 -22948573.123 9 -17881972.674 9  20770016.436    20770014.765
 -24260853.763 9 -18904526.627 9  20336644.365    20336642.752
 99  1  2  0 14 30.0000000  0  7G27G15G 4G 9G26G 2G 7
 -16588660.334 5 -12926204.239 5  22238028.451    22238026.250
  -9803310.460 4  -7638911.286 4  23136683.589    23136681.112
  -9323177.449 4  -7264796.927 4  23272999.359    23272996.854
  -7269621.530 4  -5664628.835 4  23771711.282    23771708.831
  -7136480.697 4  -5560868.528 4  23716331.119    23716329.633
 -22935167.874 9 -17871527.001 9  20772567.312    20772565.943
 -24272479.914 9 -18913585.928 9  20334432.058    20334430.573
 99  1  2  0 15  0.0000000  0  7G27G15G 4G 9G26G 2G 7
 -16486394.718 5 -12846516.747 5  22257488.399    22257487.025
  -9734281.241 4  -7585122.272 4  23149819.416    23149816.945
  -9432919.855 4  -7350310.304 4  23252116.043    23252113.232
  -7362009.711 4  -5736619.460 4  23754129.639    23754127.718
  -7084621.297 4  -5520458.617 4  23726199.724    23726197.524
 -22921467.731 9 -17860851.543 9  20775174.190    20775172.963
 -24283748.643 9 -18922366.718 9  20332287.658    20332286.232
 99  1  2  0 15 30.0000000  0  7G27G15G 4G 9G26G 2G 7
 -16383796.085 5 -12766569.765 5  22277012.755    22277010.646
  -9664748.290 4  -7530940.733 4  23163051.052    23163047.872
  -9542512.299 4  -7435706.831 4  23231260.553    23231258.375
  -7454145.504 4  -5808413.444 4  23736596.684    23736594.669
  -7032392.000 4  -5479760.462 4  23736138.340    23736136.314
 -22907465.773 9 -17849940.902 9  20777838.586    20777837.252
 -24294662.138 9 -18930870.704 9  20330210.707    20330209.266
 99  1  2  0 16  0.0000000  0  7G27G15G 4G 9G26G 2G 7
 -16280887.279 5 -12686381.093 5  22296595.362    22296593.419
  -9594734.504 4  -7476384.528 4  23176374.052    23176371.296
  -9651977.072 4  -7521003.914 4  23210430.021    23210428.287
  -7546054.178 4  -5880030.407 4  23719107.778    23719104.747
  -6979813.011 4  -5438789.793 4  23746144.539    23746141.573
 -22893186.940 9 -17838814.513 9  20780556.008    20780554.420
 -24305252.309 9 -18939122.748 9  20328195.450    20328194.106
 99  1  2  0 16 30.0000000  0  7G27G15G 4G 9G26G 2G 7
 -16177679.016 5 -12605959.072 5  22316235.288    22316233.401
  -9524231.583 4  -7421447.175 4  23189790.279    23189787.504
  -9761307.407 4  -7606196.233 4  23189625.014    23189623.062
  -7637726.135 4  -5951462.948 4  23701661.590    23701660.123
  -6926865.838 4  -5397532.265 4  23756220.762    23756216.927
 -22878615.799 9 -17827460.355 9  20783328.858    20783327.316
 -24315501.555 9 -18947109.136 9  20326245.219    20326243.840
 99  1  2  0 17  0.0000000  0  7G27G15G 4G 9G26G 2G 7
 -16074181.750 5 -12525311.856 5  22335930.316    22335928.178
  -9453247.590 4  -7366134.971 4  23203298.048    23203295.228
  -9870520.094 4  -7691296.893 4  23168843.018    23168840.068
  -7729156.781 4  -6022707.475 4  23684263.166    23684261.328
  -6873561.231 4  -5355996.209 4  23766364.276    23766360.387
 -22863759.936 9 -17815884.335 9  20786155.865    20786154.115
 -24325400.047 9 -18954822.213 9  20324361.611    20324360.061
 99  1  2  0 17 30.0000000  0  7G27G15G 4G 9G26G 2G 7
 -15970390.275 5 -12444435.393 5  22355681.458    22355678.959
  -9381779.427 4  -7310445.478 4  23216897.908    23216895.076
  -9979603.132 4  -7776296.529 4  23148085.243    23148082.202
  -7820314.368 4  -6093739.204 4  23666917.203    23666914.635
  -6819906.882 4  -5314187.623 4  23776574.045    23776570.862
 -22848610.971 9 -17804079.925 9  20789038.534    20789036.853
 -24334943.553 9 -18962258.680 9  20322545.354    20322543.919
 99  1  2  0 18  0.0000000  0  7G15G 4G 2G 7G 9G27G26
  -9309832.510 4  -7254382.923 4  23230588.942    23230585.895
 -10088539.591 4  -7861181.973 4  23127354.827    23127352.001
 -22833169.856 9 -17792047.866 9  20791976.871    20791975.281
 -24344125.257 9 -18969413.223 9  20320798.031    20320796.795
  -7911182.871 4  -6164545.704 4  23649624.656    23649622.097
 -15866317.100 5 -12363339.415 5  22375485.727    22375483.440
  -6765914.712 4  -5272115.779 4  23786847.390    23786844.384
 99  1  2  0 18 30.0000000  0  7G15G 4G 9G27G26G 2G 7
  -9237402.498 4  -7197943.933 4  23244372.267    23244369.362
 -10197300.348 4  -7945930.501 4  23106658.044    23106655.758
  -8001726.187 4  -6235098.792 4  23632395.429    23632392.248
 -15761954.649 5 -12282018.035 5  22395345.493    22395342.788
  -6711587.165 4  -5229782.604 4  23797185.080    23797182.577
 -22817428.806 9 -17779782.091 9  20794972.151    20794970.799
 -24352930.932 9 -18976274.755 9  20319122.339    20319121.049
 99  1  2  0 19  0.0000000  0  7G15G 4G 9G27G26G 2G 7
  -9164493.517 4  -7141131.729 4  23258246.347    23258243.468
 -10305875.123 4  -8030534.115 4  23085997.318    23085994.287
  -8091927.890 4  -6305385.686 4  23615230.718    23615227.989
 -15657286.351 5 -12200458.327 5  22415263.578    22415260.622
  -6656927.502 4  -5187190.628 4  23807586.464    23807584.716
 -22801385.837 9 -17767281.054 9  20798025.035    20798023.702
 -24361360.994 9 -18982843.604 9  20317518.118    20317516.961
 99  1  2  0 19 30.0000000  0  7G15G 4G 9G27G26G 2G 7
  -9091111.025 4  -7083950.550 4  23272210.187    23272207.630
 -10414241.513 4  -8114975.344 4  23065375.909    23065372.984
  -8181809.576 4  -6375423.252 4  23598126.200    23598123.807
 -15552325.981 5 -12118671.040 5  22435236.355    22435234.218
  -6601932.739 4  -5144337.549 4  23818052.231    23818049.428
 -22785039.208 9 -17754543.401 9  20801135.637    20801134.386
 -24369426.270 9 -18989128.205 9  20315983.337    20315982.279
 99  1  2  0 20  0.0000000  0  7G15G 4G 9G27G26G 2G 7
  -9017258.505 4  -7026403.119 4  23286263.957    23286261.481
 -10522407.949 4  -8199260.764 4  23044792.059    23044789.660
  -8271390.525 4  -6445226.487 4  23581079.912    23581076.641
 -15447072.670 5 -12036655.478 5  22455265.256    22455263.056
  -6546591.590 4  -5101214.563 4  23828583.119    23828581.621
 -22768396.583 9 -17741575.104 9  20804302.709    20804301.399
 -24377133.348 9 -18995133.691 9  20314516.676    20314515.437
 99  1  2  0 20 30.0000000  0  7G15G 4G 9G27G 2G 7G26
  -8942948.349 4  -6968499.099 4  23300404.697    23300401.962
 -10630412.024 4  -8283419.682 4  23024239.441    23024236.708
  -8360701.636 4  -6514819.409 4  23564084.580    23564081.313
 -15341543.814 5 -11954425.212 5  22475347.285    22475344.400
 -22751459.625 9 -17728377.454 9  20807525.711    20807524.225
 -24384496.947 9 -19000871.530 9  20313115.381    20313114.144
  -6490912.225 4  -5057828.006 4  23839178.826    23839176.856
 99  1  2  0 21  0.0000000  0  7G15G 4G 9G27G 2G 7G26
  -8868180.765 4  -6910238.642 4  23314632.456    23314629.621
 -10738257.842 4  -8367455.258 4  23003716.572    23003713.897
  -8449774.071 4  -6584226.367 4  23547134.084    23547131.125
 -15235749.773 5 -11871988.302 5  22495478.748    22495476.566
 -22734223.717 9 -17714946.856 9  20810805.454    20810803.971
 -24391517.761 9 -19006342.262 9  20311779.400    20311778.144
  -6434901.578 4  -5014183.331 4  23849837.940    23849834.979
 99  1  2  0 21 30.0000000  0  7G15G 4G 9G27G 2G 7G26
  -8792960.225 4  -6851625.230 4  23328946.363    23328943.554
 -10845937.687 4  -8451361.523 4  22983225.942    22983223.419
  -8538626.291 4  -6653461.769 4  23530225.546    23530223.389
 -15129701.211 5 -11789353.063 5  22515659.793    22515656.999
 -22716708.340 9 -17701298.489 9  20814138.571    20814137.162
 -24398205.760 9 -19011553.660 9  20310506.743    20310505.147
  -6378579.719 4  -4970296.130 4  23860555.365    23860552.312
 99  1  2  0 22  0.0000000  0  7G15G 4G 9G27G 2G 7G26
  -8717276.896 4  -6792651.208 4  23343348.387    23343345.827
 -10953446.587 4  -8535134.580 4  22962767.830    22962764.864
  -8627226.279 4  -6722500.590 4  23513366.310    23513363.292
 -15023373.155 5 -11706500.045 5  22535892.990    22535890.139
 -22698901.792 9 -17687423.235 9  20817526.937    20817525.639
 -24404543.337 9 -19016492.002 9  20309300.720    20309299.271
  -6321937.509 4  -4926159.317 4  23871333.708    23871329.694
 99  1  2  0 22 30.0000000  0  7G15G 4G 9G27G 2G 7G26
  -8641129.556 4  -6733315.616 4  23357838.768    23357835.889
 -11060765.194 4  -8618759.341 4  22942345.527    22942342.744
  -8715550.352 5  -6791324.417 4  23496558.126    23496555.730
 -14916774.227 5 -11623435.954 5  22556177.645    22556175.657
 -22680797.257 9 -17673315.786 9  20820972.159    20820970.713
 -24410528.224 9 -19021155.521 9  20308161.837    20308160.557
  -6264988.714 4  -4881783.608 4  23882170.766    23882167.417
 99  1  2  0 23  0.0000000  0  7G15G 4G 9G 2G 7G27G26
  -8564526.069 4  -6673624.586 4  23372416.071    23372413.135
 -11167872.364 5  -8702219.356 4  22921963.303    22921960.953
  -8803589.696 4  -6859926.408 4  23479805.242    23479802.214
 -22662416.432 9 -17658993.044 9  20824469.916    20824468.496
 -24416172.480 9 -19025553.613 9  20307087.820    20307086.339
 -14809897.695 5 -11540155.547 5  22576515.903    22576513.232
  -6207740.742 4  -4837174.757 4  23893064.432    23893062.015
 99  1  2  0 23 30.0000000  0  7G15G 4G 9G 2G 7G27G26
  -8487474.355 4  -6613584.266 4  23387078.355    23387075.943
 -11274773.409 4  -8785518.762 4  22901620.343    22901617.868
  -8891325.831 5  -6928292.083 4  23463109.747    23463106.833
 -22643762.171 9 -17644457.237 9  20828019.662    20828018.304
 -24421482.596 9 -19029691.337 9  20306077.068    20306075.700
 -14702744.501 5 -11456659.561 5  22596906.794    22596903.675
  -6150180.620 4  -4792322.665 4  23904017.809    23904016.588
 99  1  2  0 24  0.0000000  0  7G15G 4G 9G 2G 7G27G26
  -8409975.004 4  -6553195.141 4  23401826.107    23401823.300
 -11381488.367 5  -8868673.142 4  22881313.320    22881310.950
  -8978734.246 5  -6996402.428 4  23446475.045    23446473.325
 -22624807.924 9 -17629687.677 9  20831626.364    20831625.002
 -24426443.888 9 -19033557.249 9  20305132.962    20305131.827
 -14595333.312 5 -11372962.539 5  22617346.327    22617343.654
  -6092308.924 4  -4747227.830 4  23915030.703    23915028.652
 99  1  2  0 24 30.0000000  0  7G15G 4G 9G 2G 7G27G26
  -8332036.657 4  -6492463.937 4  23416657.026    23416654.136
 -11488031.168 5  -8951693.383 4  22861038.951    22861036.278
  -9065824.245 4  -7064264.647 4  23429902.713    23429900.248
 -22605559.632 9 -17614688.990 9  20835289.200    20835287.857
 -24431057.291 9 -19037152.079 9  20304255.085    20304253.799
 -14487694.537 5 -11289088.178 5  22637829.101    22637826.776
  -6034136.471 4  -4701898.619 4  23926099.619    23926098.390
 99  1  2  0 25  0.0000000  0  7G15G 4G 9G 2G 7G27G26
  -8253654.102 4  -6431386.605 4  23431572.544    23431570.072
 -11594397.615 5  -9034576.211 4  22840797.962    22840795.616
  -9152600.497 5  -7131882.390 4  23413389.308    23413387.421
 -22585999.076 9 -17599446.981 9  20839011.487    20839010.123
 -24435303.895 9 -19040461.093 9  20303447.084    20303445.742
 -14379823.308 5 -11205032.682 5  22658356.364    22658353.775
  -5975648.763 4  -4656323.732 4  23937229.083    23937227.011
 99  1  2  0 25 30.0000000  0  7G15G 4G 9G 2G 7G27G26
  -8174827.161 4  -6369962.986 4  23446572.451    23446570.155
 -11700594.364 5  -9117326.784 5  22820589.377    22820586.878
  -9239056.138 4  -7199250.315 4  23396938.175    23396935.277
 -22566113.378 9 -17583951.611 9  20842795.531    20842794.318
 -24439173.386 9 -19043476.253 9  20302710.716    20302709.370
 -14271727.884 5 -11120802.494 5  22678926.561    22678923.907
  -5916851.698 4  -4610507.804 4  23948418.172    23948415.491
 99  1  2  0 26  0.0000000  0  7G15G 4G 2G 7G 9G27G26
  -8095552.596 4  -6308190.567 4  23461658.408    23461655.948
 -11806608.525 5  -9199935.091 5  22800415.680    22800413.091
 -22545908.497 9 -17568207.529 9  20846640.410    20846639.247
 -24442670.822 9 -19046201.501 9  20302045.303    20302043.768
  -9325197.460 4  -7266373.288 4  23380545.478    23380543.098
 -14163402.213 5 -11036392.898 5  22699540.057    22699537.409
  -5857752.941 4  -4564456.793 4  23959666.042    23959662.541
 99  1  2  0 26 30.0000000  0  7G15G 4G 2G 7G 9G27G26
  -8015832.983 4  -6246071.351 4  23476828.747    23476826.194
 -11912401.625 5  -9282371.139 4  22780283.357    22780281.080
 -22525404.769 9 -17552230.583 9  20850542.201    20850540.875
 -24445811.302 9 -19048648.603 9  20301447.723    20301446.185
  -9411043.721 4  -7333266.400 4  23364208.833    23364206.396
 -14054816.617 5 -10951780.758 5  22720203.562    22720200.444
  -5798345.570 4  -4518165.313 4  23970971.781    23970967.811
 99  1  2  0 27  0.0000000  0  7G15G 4G 2G 7G 9G27G26
  -7935666.269 4  -6183603.758 4  23492083.383    23492080.830
 -12017946.995 5  -9364614.153 5  22760198.500    22760196.564
 -22504600.881 9 -17536019.747 9  20854501.084    20854499.725
 -24448599.705 9 -19050821.360 9  20300917.002    20300915.481
  -9496585.066 4  -7399921.886 4  23347931.568    23347929.144
 -13945951.619 5 -10866950.896 5  22740919.863    22740917.229
  -5738624.067 4  -4471629.100 4  23982334.832    23982331.364
 99  1  2  0 27 30.0000000  0  7G15G 4G 2G 7G 9G27G26
  -7855062.436 4  -6120795.561 4  23507421.800    23507418.278
 -12123255.861 5  -9446672.887 5  22740159.406    22740156.722
 -22483514.737 9 -17519588.973 9  20858513.463    20858512.269
 -24451055.099 9 -19052734.631 9  20300449.493    20300447.819
  -9581826.470 4  -7466343.644 4  23331710.016    23331708.019
 -13836806.827 5 -10781903.017 4  22761689.193    22761686.654
  -5678590.658 4  -4424849.790 4  23993756.974    23993755.123
 99  1  2  0 28  0.0000000  0  7G15G 4G 9G 2G 7G27G26
  -7774022.754 4  -6057647.727 4  23522843.284    23522839.963
 -12228322.922 5  -9528543.191 5  22720165.303    22720163.303
  -9666758.854 4  -7532524.638 4  23315548.064    23315545.803
 -22462137.037 9 -17502931.011 9  20862581.405    20862580.307
 -24453185.260 9 -19054394.473 9  20300044.054    20300042.523
 -13727383.761 5 -10696638.308 4  22782511.119    22782509.432
  -5618234.534 4  -4377818.984 4  24005242.956    24005242.048
 99  1  2  0 28 30.0000000  0  7G15G 4G 9G 2G 7G27G26
  -7692561.667 4  -5994171.560 4  23538344.909    23538342.079
 -12333159.552 5  -9610233.949 5  22700215.175    22700213.484
  -9751375.234 4  -7598459.371 4  23299445.554    23299443.840
 -22440454.451 9 -17486035.479 9  20866707.351    20866706.200
 -24454990.552 9 -19055801.169 9  20299700.446    20299699.154
 -13617711.385 5 -10611179.313 4  22803381.597    22803379.247
  -5557568.388 4  -4330546.649 4  24016788.171    24016786.340
 99  1  2  0 29  0.0000000  0  7G15G 4G 9G 2G 7G27G26
  -7610691.032 4  -5930376.247 4  23553924.410    23553921.573
 -12437800.784 5  -9691772.450 5  22680302.984    22680300.649
  -9835671.012 4  -7664144.316 4  23283404.928    23283402.754
 -22418458.126 9 -17468895.471 9  20870893.219    20870891.934
 -24456477.994 9 -19056960.191 9  20299417.269    20299415.998
 -13507830.724 5 -10525558.041 4  22824291.073    22824288.673
  -5496606.349 4  -4283043.789 4  24028388.656    24028386.440
 99  1  2  0 29 30.0000000  0  7G15G 4G 9G 2G 7G27G26
  -7528413.232 4  -5866263.666 4  23569581.822    23569578.755
 -12542259.355 5  -9773168.613 5  22660425.130    22660422.388
  -9919642.948 5  -7729576.886 4  23267425.570    23267423.505
 -22396140.398 9 -17451505.019 9  20875140.139    20875138.891
 -24457649.923 9 -19057873.358 9  20299194.314    20299193.090
 -13397745.402 5 -10439777.298 4  22845239.576    22845237.746
  -5435363.184 4  -4235321.854 4  24040043.434    24040040.403
 99  1  2  0 30  0.0000000  0  7G15G 4G 9G 2G 7G27G26
  -7445733.730 4  -5801838.060 4  23585314.698    23585312.321
 -12646514.760 5  -9854406.471 5  22640585.113    22640583.243
 -10003278.748 5  -7794747.554 4  23251509.794    23251508.048
 -22373500.799 9 -17433863.761 9  20879448.311    20879447.014
 -24458502.790 9 -19058537.903 9  20299031.979    20299030.917
 -13287469.103 5 -10353847.714 4  22866224.305    22866222.391
  -5373864.242 4  -4187400.557 4  24051746.563    24051743.561
 99  1  2  0 30 30.0000000  0  7G15G 4G 9G 2G 7G27G26
  -7362634.231 4  -5737085.190 4  23601127.494    23601126.307
 -12750536.091 5  -9935461.930 5  22620790.829    22620788.788
 -10086568.582 5  -7859648.633 4  23235660.314    23235658.405
 -22350531.912 9 -17415965.916 9  20883819.203    20883817.633
 -24459005.539 9 -19058929.630 9  20298936.385    20298935.167
 -13176983.491 5 -10267755.035 4  22887249.278    22887247.131
  -5312108.728 4  -4139279.335 4  24063497.729    24063494.820
 99  1  2  0 31  0.0000000  0  7G15G 4G 9G 2G 7G27G26
  -7279120.696 4  -5672009.709 4  23617019.806    23617018.147
 -12854322.571 5 -10016334.399 5  22601041.002    22601039.000
 -10169524.970 5  -7924289.892 4  23219874.233    23219872.041
 -22327256.847 9 -17397829.491 9  20888248.493    20888246.911
 -24459168.089 9 -19059056.269 9  20298905.491    20298904.211
 -13066267.958 5 -10181483.217 4  22908318.151    22908315.900
  -5250102.280 4  -4090962.623 4  24075297.381    24075293.818
 99  1  2  0 31 30.0000000  0  7G15G 4G 9G27G 2G 7G26
  -7195191.663 4  -5606610.471 4  23632991.459    23632988.987
 -12957847.028 5 -10097002.693 5  22581340.502    22581339.035
 -10252136.442 5  -7988662.384 4  23204154.006    23204151.785
 -12955300.229 5 -10095014.867 4  22929434.069    22929432.162
 -22303677.141 9 -17379455.684 9  20892735.399    20892734.057
 -24458983.715 9 -19058912.577 9  20298940.622    20298939.360
  -5187836.907 4  -4042444.145 4  24087145.382    24087142.870
 99  1  2  0 32  0.0000000  0  7G15G 4G 9G27G 2G 7G26
  -7110854.124 4  -5540892.889 4  23649039.869    23649037.651
 -13061097.865 5 -10177457.783 5  22561692.090    22561690.707
 -10334400.304 5  -8052764.026 4  23188499.274    23188497.310
 -12844091.011 4 -10008358.328 4  22950596.438    22950594.318
 -22279801.571 9 -17360851.334 9  20897278.630    20897277.364
 -24458459.363 9 -19058503.968 9  20299040.507    20299039.004
  -5125299.657 4  -3993713.811 4  24099044.899    24099043.800
 99  1  2  0 32 30.0000000  0  7G15G 4G 9G27G 2G 7G26
  -7026109.668 4  -5474858.214 4  23665166.198    23665163.992
 -13164086.656 5 -10257708.680 5  22542093.915    22542092.672
 -10416307.626 5  -8116587.826 4  23172912.573    23172911.229
 -12732636.813 5  -9921510.917 4  22971805.988    22971803.675
 -22255624.446 9 -17342012.008 8  20901879.232    20901878.031
 -24457598.831 9 -19057833.402 9  20299204.272    20299202.521
  -5062479.374 4  -3944762.914 4  24110999.454    24110997.088
 99  1  2  0 33  0.0000000  0  7G15G 4G 9G27G 2G 7G26
  -6940971.351 4  -5408516.661 4  23681367.498    23681365.630
 -13266826.850 5 -10337765.869 5  22522543.018    22522541.529
 -10497853.527 5  -8180130.026 4  23157394.909    23157393.022
 -12620958.538 5  -9834488.910 4  22993057.739    22993055.018
 -22231145.877 9 -17322937.789 8  20906537.432    20906536.313
 -24456416.721 9 -19056912.256 9  20299429.178    20299427.633
  -4999374.204 4  -3895590.065 4  24123008.218    24123005.290
 99  1  2  0 33 30.0000000  0  7G15G 4G 9G27G 2G 7G26
  -6855438.739 4  -5341867.867 4  23697644.349    23697641.693
 -13369314.864 5 -10417626.553 5  22503040.261    22503039.051
 -10579021.953 5  -8243378.058 4  23141949.647    23141947.516
 -12509078.565 4  -9747309.712 4  23014347.433    23014345.250
 -22206361.705 9 -17303625.440 8  20911253.780    20911252.463
 -24454912.057 9 -19055739.766 9  20299715.390    20299714.141
  -4935983.030 4  -3846194.313 4  24135072.409    24135068.607
 99  1  2  0 34  0.0000000  0  7G15G 4G 9G27G 2G 7G26
  -6769516.304 4  -5274915.327 4  23713994.873    23713991.576
 -13471567.681 5 -10497303.979 5  22483581.923    22483580.770
 -10659821.617 5  -8306338.761 4  23126573.632    23126571.739
 -12397012.656 4  -9659985.637 4  23035673.211    23035670.427
 -22181275.238 9 -17284077.532 9  20916027.644    20916026.160
 -24453091.527 9 -19054321.148 9  20300061.660    20300060.424
  -4872325.685 4  -3796591.147 4  24147185.691    24147182.192
 99  1  2  0 34 30.0000000  0  7G15G 4G 9G27G 2G 7G26
  -6683213.036 4  -5207666.035 4  23730417.761    23730414.775
 -13573590.131 5 -10576801.879 5  22464168.188    22464165.982
 -10740273.577 5  -8369028.513 4  23111263.992    23111261.940
 -12284772.055 4  -9572525.439 4  23057031.688    23057029.429
 -22155879.088 9 -17264288.316 9  20920860.291    20920858.964
 -24450953.139 9 -19052654.848 9  20300468.519    20300467.260
  -4808428.678 4  -3746801.265 4  24159344.973    24159341.342
 99  1  2  0 35  0.0000000  0  7G15G 4G 2G 7G 9G27G26
  -6596530.277 4  -5140121.040 4  23746912.991    23746910.616
 -13675373.691 5 -10656113.643 5  22444798.854    22444797.285
 -22130170.874 9 -17244255.931 9  20925752.584    20925750.938
 -24448496.683 9 -19050740.705 9  20300936.021    20300934.926
 -10820397.518 5  -8431462.672 4  23096015.777    23096015.178
 -12172357.894 4  -9484930.011 4  23078423.299    23078421.455
  -4744296.787 4  -3696828.333 4  24171548.482    24171545.100
 99  1  2  0 35 30.0000000  0  7G15G 4G 9G27G26G 2G 7
  -6509459.364 4  -5072273.580 4  23763481.524    23763479.848
 -13776898.967 5 -10735224.152 5  22425479.568    22425477.584
 -10900186.699 5  -8493635.992 4  23080833.370    23080831.920
 -12059743.705 5  -9397178.699 4  23099852.761    23099851.517
  -4679929.609 4  -3646672.067 4  24183796.760    24183793.970
 -22104141.080 9 -17223972.965 9  20930705.927    20930704.205
 -24445711.209 9 -19048570.185 9  20301466.082    20301465.020
 99  1  2  0 36  0.0000000  0  7G15G 4G 9G27G 2G 7G26
  -6421998.304 4  -5004122.102 4  23780125.336    23780123.283
 -13878149.857 5 -10814120.847 5  22406211.854    22406210.199
 -10979652.936 5  -8555557.654 4  23065711.133    23065709.494
 -11946916.834 4  -9309261.661 4  23121323.716    23121321.182
 -22077773.308 9 -17203426.638 9  20935723.479    20935721.976
 -24442582.762 9 -19046132.413 9  20302061.483    20302060.283
  -4615334.467 4  -3596338.161 4  24196088.739    24196086.663
 99  1  2  0 36 30.0000000  0  7G15G 4G 9G27G 2G 7G26
  -6334154.569 4  -4935672.453 4  23796841.615    23796839.295
 -13979116.949 5 -10892796.412 5  22386997.684    22386996.300
 -11058795.466 5  -8617227.079 5  23050651.513    23050649.103
 -11833882.148 4  -9221182.722 4  23142833.299    23142831.259
 -22051076.521 9 -17182623.940 9  20940803.650    20940802.405
 -24439107.941 9 -19043424.739 9  20302722.714    20302721.491
  -4550507.135 4  -3545823.351 4  24208425.159    24208422.790
 99  1  2  0 37  0.0000000  0  7G15G 4G 2G 7G 9G27G26
  -6245925.923 4  -4866922.867 4  23813630.982    23813628.372
 -14079797.133 5 -10971248.411 5  22367839.066    22367837.262
 -22024075.353 9 -17161584.065 9  20945941.724    20945940.131
 -24435289.302 9 -19040449.155 9  20303449.416    20303448.230
 -11137594.174 5  -8678628.586 4  23035655.520    23035653.952
 -11720629.997 5  -9132934.293 4  23164383.834    23164382.807
  -4485434.076 4  -3495117.039 4  24220808.104    24220805.448
 99  1  2  0 37 30.0000000  0  8G15G14G 4G 2G 7G 9G27G26
  -6157319.127 4  -4797878.650 4  23830491.962    23830489.270
         0.09014         0.03814  25336491.283    25336488.454
 -14180192.583 5 -11049478.539 5  22348734.151    22348732.734
 -21996787.616 9 -17140320.886 8  20951134.465    20951132.895
 -24431137.666 9 -19037214.096 9  20304239.275    20304238.036
 -11216041.735 5  -8739756.493 4  23020727.809    23020726.094
 -11607167.781 4  -9044522.182 4  23185974.962    23185973.412
  -4420122.935 4  -3444225.220 4  24233236.226    24233233.133
 99  1  2  0 38  0.0000000  0  8G15G14G 4G 2G 7G 9G27G26
  -6068341.762 4  -4728545.652 4  23847423.983    23847421.855
    -60041.141 4    -46785.237 4  25325066.798    25325064.074
 -14280305.878 5 -11127488.806 5  22329683.649    22329681.736
 -21969206.614 9 -17118829.188 8  20956382.866    20956381.421
 -24426662.395 9 -19033726.855 9  20305090.890    20305089.714
 -11294132.917 5  -8800606.682 4  23005867.215    23005865.743
 -11493514.242 4  -8955961.013 4  23207603.656    23207601.188
  -4354578.154 4  -3393151.344 4  24245709.590    24245706.550
 99  1  2  0 38 30.0000000  0  7G15G 4G 9G27G 2G 7G26
  -5978997.532 4  -4658926.807 4  23864425.325    23864423.013
 -14380139.641 5 -11205281.264 5  22310685.481    22310683.984
 -11371844.093 5  -8861160.767 5  22991079.308    22991077.607
 -11379679.646 4  -8867258.739 4  23229265.223    23229263.397
 -21941335.813 9 -17097111.675 8  20961686.314    20961684.972
 -24421877.336 9 -19029998.219 9  20306001.329    20306000.296
  -4288793.776 4  -3341890.760 4  24258227.872    24258226.256
 99  1  2  0 39  0.0000000  0  7G15G 4G 9G27G26G 2G 7
  -5889280.899 4  -4589017.779 4  23881498.113    23881494.449
 -14479680.101 5 -11282845.175 5  22291743.461    22291742.130
 -11449165.777 5  -8921411.347 4  22976364.579    22976363.443
 -11265664.261 4  -8778415.604 4  23250961.263    23250958.562
  -4222762.154 4  -3290437.535 4  24270792.757    24270790.826
 -21913152.822 9 -17075150.897 8  20967049.273    20967047.869
 -24416788.682 9 -19026033.017 9  20306969.696    20306968.554
 99  1  2  0 39 30.0000000  0  7G15G 4G 9G27G26G 2G 7
  -5799201.030 4  -4518825.706 4  23898639.480    23898636.066
 -14578931.232 5 -11360183.632 5  22272856.879    22272855.671
 -11526096.177 5  -8981357.043 4  22961725.735    22961724.227
 -11151486.078 4  -8689445.584 4  23272689.070    23272686.905
  -4156494.409 4  -3238800.325 4  24283402.872    24283400.928
 -21884625.299 9 -17052921.651 8  20972477.971    20972476.720
 -24411403.955 9 -19021837.106 9  20307994.488    20307993.163
 99  1  2  0 40  0.0000000  0  7G15G 4G 2G 7G 9G27G26
  -5708757.485 4  -4448350.236 4  23915850.459    23915847.701
 -14677887.916 5 -11437292.657 5  22254025.612    22254024.417
 -21855736.049 9 -17030410.542 8  20977975.538    20977974.207
 -24405700.363 9 -19017392.731 9  20309079.751    20309078.520
 -11602621.215 5  -9040986.859 5  22947163.868    22947161.375
 -11037152.997 4  -8600354.874 4  23294446.838    23294442.845
  -4089981.798 4  -3186972.306 4  24296059.039    24296057.422
 99  1  2  0 40 30.0000000  0  8G 2G15G14G 4G 7G 9G27G26
 -21826512.780 9 -17007639.164 8  20983536.385    20983535.102
  -5617956.778 4  -4377596.473 4  23933128.952    23933126.988
        -0.67514        -0.38014  25268740.899    25268735.954
 -14776554.865 5 -11514175.918 5  22235249.761    22235248.692
 -24399672.867 9 -19012695.963 9  20310226.700    20310225.460
 -11678753.477 5  -9100310.626 4  22932675.446    22932674.245
 -10922673.152 4  -8511149.850 4  23316231.241    23316227.534
  -4023226.933 4  -3134955.532 4  24308762.822    24308760.737
 99  1  2  0 41  0.0000000  0  8G 2G15G14G 4G 7G 9G27G26
 -21796965.134 9 -16984615.023 8  20989159.194    20989158.036
  -5526809.269 4  -4306572.476 4  23950473.483    23950472.067
    -58333.070 4    -45454.147 4  25257638.011    25257636.171
 -14874936.429 5 -11590836.801 5  22216528.471    22216527.202
 -24393320.842 9 -19007746.316 9  20311435.329    20311433.933
 -11754510.955 5  -9159342.365 4  22918260.045    22918258.129
 -10808045.148 4  -8421829.305 4  23338043.100    23338041.477
  -3956243.276 4  -3082760.463 4  24321509.371    24321507.513
 99  1  2  0 41 30.0000000  0  7G 2G15G 4G 7G 9G27G26
 -21767099.921 9 -16961343.425 8  20994842.498    20994841.220
  -5435317.351 4  -4235280.092 4  23967883.382    23967882.778
 -14973037.948 5 -11667279.466 5  22197860.096    22197859.212
 -24386628.460 9 -19002531.456 9  20312708.884    20312707.630
 -11829893.466 5  -9218081.921 4  22903914.691    22903913.631
 -10693260.134 4  -8332386.446 4  23359887.763    23359883.486
  -3889049.106 4  -3030401.372 4  24334296.473    24334294.826
 99  1  2  0 42  0.0000000  0  8G 2G15G14G 4G 7G 9G27G26
 -21736926.306 9 -16937831.511 8  21000584.290    21000582.993
  -5343472.336 4  -4163712.562 4  23985361.137    23985359.874
        -0.70914        -0.72014  25235602.221    25235592.767
 -15070840.776 6 -11743489.388 5  22179248.644    22179248.058
 -24379583.128 9 -18997041.568 9  20314049.560    20314048.548
 -11904902.769 5  -9276530.673 4  22889641.281    22889639.557
 -10578306.578 4  -8242812.284 4  23381762.059    23381758.031
  -3821648.236 4  -2977881.206 4  24347122.591    24347120.185
 99  1  2  0 42 30.0000000  0  7G 2G15G 4G 9G27G26G 7
 -21706441.133 9 -16914076.824 8  21006385.350    21006384.293
  -5251280.878 4  -4091875.096 4  24002904.347    24002903.495
 -15168347.089 6 -11819468.267 5  22160693.879    22160693.320
 -11979540.798 5  -9334690.110 4  22875437.685    22875435.695
 -10463181.606 4  -8153104.512 4  23403668.614    23403667.052
  -3754051.379 4  -2925208.311 4  24359985.969    24359983.281
 -24372222.368 9 -18991305.890 9  20315450.208    20315449.061
 99  1  2  0 43  0.0000000  0  7G 2G15G 4G 7G 9G27G26
 -21675623.229 9 -16890062.871 8  21012249.866    21012248.825
  -5158739.501 4  -4019764.924 4  24020513.780    24020513.595
 -15265564.874 6 -11895222.316 5  22142193.857    22142193.039
 -24364552.479 9 -18985329.333 9  20316909.961    20316908.540
 -12053785.065 5  -9392542.736 4  22861309.741    22861308.030
 -10347877.668 4  -8063257.260 4  23425611.082    23425608.329
  -3686264.062 4  -2872386.999 4  24372884.736    24372881.165
 99  1  2  0 43 30.0000000  0  8G 2G15G14G 4G 7G 9G27G26
 -21644472.683 9 -16865789.715 8  21018177.497    21018176.305
  -5065845.971 4  -3947380.343 4  24038191.340    24038190.659
        -0.73314        -0.02914  25202956.096    25202953.736
 -15362497.796 6 -11970754.401 5  22123748.242    22123747.225
 -24356575.681 9 -18979113.627 9  20318427.859    20318426.476
 -12127616.095 5  -9450073.350 5  22847259.751    22847257.955
 -10232408.128 4  -7973281.052 4  23447584.242    23447581.138
  -3618279.348 4  -2819411.895 4  24385822.195    24385818.066
 99  1  2  0 44  0.0000000  0  7G 2G 4G15G 9G27G26G 7
 -21612997.937 9 -16841263.935 8  21024167.188    21024165.754
 -15459157.161 6 -12046073.320 5  22105354.827    22105353.804
  -4972611.258 4  -3874729.911 4  24055933.936    24055932.551
 -12201029.988 5  -9507278.930 5  22833289.549    22833287.981
 -10116789.884 4  -7883188.890 4  23469585.966    23469583.294
  -3550089.001 4  -2766276.552 4  24398797.753    24398794.833
 -24348315.157 9 -18972676.837 9  20319999.690    20319998.348
 99  1  2  0 44 30.0000000  0  7G 2G15G 4G 9G27G26G 7
 -21581197.397 9 -16816484.290 8  21030218.695    21030217.393
  -4879035.503 4  -3801813.734 4  24073740.686    24073738.615
 -15555550.822 6 -12121185.207 5  22087011.475    22087010.652
 -12274014.905 5  -9564150.218 5  22819400.806    22819399.452
 -10001019.647 4  -7792978.365 4  23491615.983    23491613.443
  -3481688.465 4  -2712977.417 4  24411814.010    24411811.726
 -24339763.216 9 -18966012.972 9  20321626.873    20321625.770
 99  1  2  0 45  0.0000000  0  7G 2G15G 4G 7G 9G27G26
 -21549084.504 9 -16791461.255 8  21036329.473    21036328.239
  -4785127.479 4  -3728638.642 4  24091611.114    24091608.584
 -15651671.799 6 -12196084.613 5  22068720.505    22068719.105
 -24330902.864 9 -18959108.784 9  20323312.888    20323311.952
 -12346585.972 5  -9620699.064 5  22805590.960    22805589.862
  -9885108.698 4  -7702658.120 4  23513672.900    23513670.552
  -3413098.268 4  -2659530.504 4  24424866.259    24424865.213
 99  1  2  0 45 30.0000000  0  8G 2G 4G15G14G 7G 9G27G26
 -21516642.072 9 -16766181.433 8  21042503.131    21042501.813
 -15747469.276 6 -12270731.940 5  22050490.533    22050489.466
  -4690878.705 4  -3655198.004 4  24109545.988    24109543.277
        -0.00614        -0.07714  25160230.606    25160230.872
 -24321720.032 9 -18951953.311 9  20325060.362    20325059.339
 -12418747.669 5  -9676928.886 5  22791859.413    22791857.847
  -9769048.821 4  -7612221.873 4  23535759.183    23535755.644
  -3344303.283 4  -2605924.017 4  24437957.182    24437956.266
 99  1  2  0 46  0.0000000  0  7G 2G 4G 9G15G 7G27G26
 -21483865.485 9 -16740641.229 8  21048740.264    21048739.045
 -15842925.881 6 -12345113.659 5  22032325.408    22032324.363
 -12490521.481 5  -9732856.487 5  22778201.186    22778199.422
  -4596299.549 4  -3581499.952 4  24127544.936    24127541.092
 -24312220.067 9 -18944550.723 9  20326868.254    20326867.031
  -9652845.284 4  -7521673.681 4  23557871.743    23557868.421
  -3275321.091 4  -2552171.647 4  24451084.183    24451082.552
 99  1  2  0 46 30.0000000  0  8G 2G 4G 9G15G14G 7G27G26
 -21450757.578 9 -16714842.851 8  21055040.462    21055039.250
 -15938014.252 6 -12419208.443 5  22014230.504    22014229.793
 -12561905.789 5  -9788480.532 5  22764617.172    22764615.851
  -4501389.501 4  -3507544.056 4  24145605.823    24145602.247
         0.31514         0.30914  25139214.904    25139213.700
 -24302394.273 9 -18936894.243 9  20328737.917    20328736.745
  -9536494.978 4  -7431011.118 4  23580011.537    23580009.188
  -3206160.778 4  -2498280.482 4  24464244.937    24464242.573
 99  1  2  0 47  0.0000000  0  7G 2G 4G 9G15G 7G27G26
 -21417334.471 9 -16688798.865 8  21061400.764    21061399.278
 -16032725.321 6 -12493009.225 5  21996207.696    21996206.874
 -12632909.211 5  -9843807.841 5  22751105.573    22751104.245
  -4406165.589 4  -3433343.580 4  24163725.760    24163723.105
 -24292267.493 9 -18929003.230 9  20330664.838    20330663.722
  -9420020.331 4  -7340251.622 4  23602176.700    23602173.586
  -3136825.872 4  -2444253.287 4  24477439.923    24477436.430
 99  1  2  0 47 30.0000000  0  8G 2G 4G 9G15G14G 7G27G26
 -21383589.159 9 -16662503.810 8  21067822.384    21067820.842
 -16127049.405 6 -12566508.459 5  21978258.477    21978257.637
 -12703520.226 5  -9898829.339 5  22737668.693    22737667.210
  -4310621.133 4  -3358893.331 4  24181907.174    24181904.548
        -0.00914        -0.32614  25118429.280    25118427.836
 -24281839.968 9 -18920877.868 9  20332649.198    20332648.164
  -9303416.984 4  -7249391.905 4  23624365.883    23624361.356
  -3067293.819 4  -2390072.458 4  24490670.902    24490668.714
 99  1  2  0 48  0.0000000  0  7G 2G 4G 9G15G 7G27G26
 -21349519.721 9 -16635956.190 8  21074305.465    21074304.017
 -16221008.193 6 -12639723.049 5  21960378.478    21960377.977
 -12773718.516 5  -9953529.260 5  22724309.734    22724309.079
  -4214755.072 4  -3284192.494 4  24200149.888    24200147.404
 -24271113.561 9 -18912519.613 9  20334690.381    20334689.446
  -9186681.095 4  -7158428.907 4  23646578.631    23646576.780
  -2997562.597 4  -2335736.441 4  24503940.484    24503938.494
 99  1  2  0 48 30.0000000  0  8G 2G 4G 9G15G14G 7G27G26
 -21315137.352 9 -16609164.729 8  21080848.007    21080846.562
 -16314618.213 6 -12712665.883 5  21942564.899    21942564.409
 -12843501.167 5 -10007905.288 5  22711030.571    22711029.744
  -4118574.968 4  -3209246.961 4  24218452.343    24218449.630
         0.08914        -0.18514  25097899.141    25097898.436
 -24260096.659 9 -18903934.997 9  20336786.740    20336785.653
  -9069821.348 4  -7067369.287 4  23668817.300    23668814.209
  -2927626.216 4  -2281240.554 4  24517249.538    24517246.630
 99  1  2  0 49  0.0000000  0  7G 2G 4G 9G15G 7G27G26
 -21280444.127 9 -16582131.040 8  21087449.988    21087448.471
 -16407907.334 6 -12785358.665 6  21924813.047    21924811.902
 -12912880.004 5 -10061966.677 5  22697828.570    22697827.258
  -4022098.369 4  -3134070.391 4  24236810.742    24236808.760
 -24248805.263 9 -18895136.493 9  20338935.474    20338934.316
  -8952861.657 4  -6976231.923 4  23691075.138    23691069.940
  -2857495.079 4  -2226592.909 4  24530595.035    24530592.401
 99  1  2  0 49 30.0000000  0  8G 2G 4G 9G15G14G 7G27G26
 -21245416.371 9 -16554836.676 8  21094115.672    21094114.196
 -16500881.491 6 -12857806.021 6  21907120.657    21907119.439
 -12981839.500 5 -10115701.283 4  22684705.180    22684704.712
  -3925318.634 4  -3058657.596 4  24255227.192    24255225.990
         0.44014         0.31614  25077626.110    25077625.471
 -24237225.622 9 -18886113.380 9  20341139.058    20341137.907
  -8835787.485 4  -6885005.337 4  23713352.726    23713349.897
  -2787175.069 4  -2171798.102 4  24543976.452    24543974.225
 99  1  2  0 50  0.0000000  0  7G 2G 4G 9G15G 7G27G26
 -21210057.895 9 -16527284.610 8  21100844.137    21100842.667
 -16593553.621 6 -12930018.033 6  21889485.609    21889484.611
 -13050358.627 6 -10169092.787 5  22671666.744    22671666.088
  -3828236.755 4  -2983009.359 4  24273701.445    24273699.908
 -24225352.227 9 -18876861.370 9  20343398.523    20343397.274
  -8718594.626 4  -6793686.151 4  23735652.419    23735650.449
  -2716675.960 4  -2116863.745 4  24557391.367    24557389.512
 99  1  2  0 50 30.0000000  0  9G 2G 4G 9G15G14G 7G24G27G26
 -21174379.351 9 -16499483.142 8  21107633.520    21107632.245
 -16685917.023 6 -13001989.481 6  21871909.399    21871908.358
 -13118436.435 6 -10222140.373 5  22658712.320    22658711.375
  -3730858.385 4  -2907130.100 4  24292232.369    24292231.093
        -0.16014        -0.20114  25057601.602    25057598.836
 -24213175.221 9 -18867372.781 9  20345715.710    20345714.382
        -0.66914        -0.90314  25043378.306    25043372.497
  -8601286.640 4  -6702277.367 4  23757976.695    23757973.260
  -2646017.598 4  -2061805.302 4  24570836.576    24570835.507
 99  1  2  0 51  0.0000000  0  9G 2G 4G 9G15G14G 7G24G27G26
 -21138378.922 9 -16471430.859 8  21114484.216    21114482.863
 -16777974.870 6 -13073722.832 6  21854391.503    21854390.421
 -13186080.610 6 -10274850.068 5  22645840.265    22645839.052
  -3633196.002 4  -2831029.539 4  24310816.298    24310815.783
    -52172.054 4    -40653.608 4  25047673.644    25047670.820
 -24200707.371 9 -18857657.558 9  20348088.272    20348086.995
   -112940.088 4    -88005.310 4  25021886.530    25021880.609
  -8483863.717 4  -6610778.981 4  23780321.953    23780319.543
  -2575227.442 4  -2006644.158 4  24584308.188    24584305.772
 99  1  2  0 51 30.0000000  0  9G 4G 2G 9G15G14G 7G24G27G26
 -16869713.409 6 -13145207.373 6  21836934.021    21836933.173
 -21102048.307 9 -16443121.288 8  21121397.656    21121396.342
 -13253285.730 6 -10327217.645 5  22633051.089    22633050.236
  -3535244.027 4  -2754703.327 4  24329457.445    24329455.133
   -104027.394 4    -81060.316 4  25037805.480    25037801.614
 -24187943.175 9 -18847711.416 9  20350517.123    20350516.003
   -225914.695 4   -176037.170 4  25000386.761    25000382.005
  -8366311.805 4  -6519180.122 4  23802689.905    23802687.141
  -2504312.686 4  -1951385.914 4  24597802.441    24597800.390
 99  1  2  0 52  0.0000000  0 10G 4G 2G 9G15G14G 7G24G16G27G26
 -16961097.319 6 -13216415.582 6  21819544.039    21819543.536
 -21065373.734 9 -16414543.697 7  21128376.429    21128375.284
 -13320042.756 6 -10379236.060 5  22620347.528    22620346.439
  -3436986.045 4  -2678138.722 4  24348153.635    24348151.240
   -155537.550 4   -121198.074 4  25028003.802    25027998.700
 -24174867.030 9 -18837522.197 9  20353005.291    20353004.269
   -338898.186 4   -264075.975 4  24978886.625    24978882.340
        -0.24014        -0.46014  25201230.336    25201225.796
  -8248618.476 4  -6427470.971 4  23825086.692    23825083.975
  -2433246.306 4  -1896009.510 4  24611325.941    24611323.927
 99  1  2  0 52 30.0000000  0 10G 4G 2G 9G15G14G 7G24G16G27G26
 -17052114.943 6 -13287338.368 6  21802224.240    21802223.409
 -21028353.176 9 -16385696.507 7  21135421.227    21135420.000
 -13386382.533 6 -10430929.340 5  22607723.611    22607722.477
  -3338438.850 4  -2601348.697 4  24366906.550    24366903.765
   -206704.062 4   -161068.047 4  25018266.771    25018263.576
 -24161495.357 9 -18827102.696 9  20355549.743    20355548.877
   -451886.328 4   -352118.428 4  24957386.182    24957381.354
    -78063.900 4    -60829.199 4  25186374.393    25186370.888
  -8130813.022 4  -6335674.529 4  23847505.360    23847501.318
  -2362038.764 4  -1840523.121 4  24624876.098    24624874.397
 99  1  2  0 53  0.0000000  0 10G 4G 2G 9G15G14G 7G24G16G27G26
 -17142751.478 6 -13357964.207 6  21784976.285    21784976.008
 -20990975.122 9 -16356570.750 7  21142534.217    21142532.908
 -13452300.486 6 -10482293.924 5  22595179.716    22595178.780
  -3239601.994 4  -2524332.996 4  24385715.825    24385711.675
   -257503.411 4   -200651.920 4  25008599.434    25008596.810
 -24147834.437 9 -18816457.806 9  20358149.231    20358148.428
   -564856.750 4   -440147.100 4  24935888.106    24935884.001
   -156070.610 4   -121613.623 4  25171529.894    25171526.883
  -8012911.583 4  -6243803.317 4  23869939.983    23869936.878
  -2290676.547 4  -1784916.191 4  24638456.533    24638453.928
 99  1  2  0 53 30.0000000  0 10G 4G 2G 9G15G14G 7G24G16G27G26
 -17232994.331 6 -13428283.278 6  21767803.864    21767803.323
 -20953251.247 9 -16327175.524 7  21149712.769    21149711.689
 -13517788.821 6 -10533323.753 5  22582717.711    22582716.433
  -3140475.850 4  -2447091.860 4  24404578.090    24404574.421
   -307934.346 4   -239948.711 4  24999002.803    24999000.142
 -24133886.443 9 -18805589.223 9  20360803.636    20360802.630
   -677797.146 4   -528152.359 4  24914396.039    24914391.532
   -234007.936 4   -182343.955 4  25156698.733    25156695.477
  -7894921.239 4  -6151862.746 4  23892393.280    23892390.209
  -2219156.151 4  -1729186.000 4  24652067.388    24652063.702
 99  1  2  0 54  0.0000000  0 10G 4G 2G 9G15G14G 7G24G16G27G26
 -17322831.048 6 -13498285.878 6  21750708.547    21750707.757
 -20915185.711 9 -16297514.072 7  21156956.071    21156955.154
 -13582844.211 6 -10584016.202 5  22570337.818    22570336.655
  -3041060.169 4  -2369625.098 4  24423496.302    24423493.691
   -358000.501 4   -278961.256 4  24989475.052    24989473.181
 -24119650.773 9 -18794496.479 9  20363512.886    20363511.592
   -790702.694 4   -616130.481 4  24892910.311    24892906.183
   -311874.050 4   -243018.824 4  25141881.188    25141877.795
  -7776848.389 4  -6059857.924 4  23914861.576    23914858.294
  -2147475.065 4  -1673330.612 4  24665707.679    24665703.703
 99  1  2  0 54 30.0000000  0 10G 4G 2G 9G15G14G 7G24G16G27G26
 -17412273.781 6 -13567981.482 6  21733687.963    21733687.292
 -20876793.650 9 -16267598.186 7  21164261.807    21164260.746
 -13647461.527 6 -10634367.314 5  22558041.397    22558040.483
  -2941367.656 4  -2291942.595 4  24442467.629    24442464.358
   -407718.811 4   -317702.694 4  24980014.494    24980012.294
 -24105132.358 9 -18783183.415 9  20366275.600    20366274.298
   -903587.387 4   -704092.323 4  24871428.416    24871424.683
   -389668.679 4   -303637.982 4  25127077.646    25127074.312
  -7658706.722 4  -5967799.509 4  23937342.653    23937339.921
  -2075663.658 4  -1617373.673 4  24679372.617    24679369.521
 99  1  2  0 55  0.0000000  0 10G 4G 2G 9G15G14G 7G24G16G27G26
 -17501331.546 6 -13637377.104 6  21716741.115    21716740.246
 -20838085.402 9 -16237435.920 7  21171627.899    21171626.742
 -13711629.833 6 -10684368.528 5  22545830.714    22545829.681
  -2841399.383 4  -2214045.233 4  24461490.414    24461487.700
   -457086.063 4   -356170.581 4  24970620.026    24970616.995
 -24090333.709 9 -18771651.985 9  20369091.487    20369090.385
  -1016458.067 4   -792043.209 4  24849949.833    24849945.468
   -467366.901 4   -364182.000 4  25112290.640    25112289.705
  -7540471.185 4  -5875667.922 4  23959842.451    23959839.561
  -2003736.341 4  -1561326.451 4  24693059.988    24693057.151
 99  1  2  0 55 30.0000000  0 10G 4G 2G 9G15G14G 7G24G16G27G26
 -17590017.284 6 -13706482.839 6  21699864.685    21699863.582
 -20799067.038 9 -16207032.001 7  21179052.923    21179051.928
 -13775358.728 6 -10734027.366 5  22533703.133    22533702.664
  -2741159.010 4  -2135935.820 4  24480565.737    24480563.027
   -506111.751 4   -394372.372 4  24961290.856    24961288.038
 -24075251.001 9 -18759899.212 9  20371961.668    20371960.532
  -1129338.083 4   -880001.398 4  24828470.223    24828465.436
   -544959.768 4   -424643.915 4  25097526.823    25097523.249
  -7422125.529 4  -5783450.489 4  23982363.291    23982359.826
  -1931699.804 4  -1505194.095 4  24706768.071    24706765.207
 99  1  2  0 56  0.0000000  0 10G 4G 2G 9G15G14G 7G24G16G27G26
 -17678341.173 6 -13775306.614 6  21683057.009    21683056.068
 -20759733.878 9 -16176382.786 7  21186537.799    21186536.652
 -13838646.049 6 -10783342.105 5  22521660.200    22521659.705
  -2640649.937 4  -2057617.066 4  24499692.383    24499689.557
   -554789.050 4   -432302.683 4  24952027.525    24952024.684
 -24059858.144 9 -18747904.763 9  20374890.972    20374889.726
  -1242226.357 4   -967966.017 4  24806988.148    24806983.404
   -622456.377 4   -485030.908 4  25082779.209    25082775.025
  -7303678.146 4  -5691153.884 4  24004902.608    24004899.391
  -1859553.355 4  -1448976.113 4  24720497.363    24720493.617
 99  1  2  0 56 30.0000000  0 10G 4G 2G 9G15G14G 7G24G16G27G26
 -17766312.819 6 -13843855.913 6  21666316.778    21666315.453
 -20720076.429 9 -16145480.883 7  21194084.207    21194083.161
 -13901476.065 6 -10832300.516 5  22509703.892    22509703.122
  -2539871.376 4  -1979088.282 4  24518870.048    24518867.176
   -603100.340 4   -469947.818 4  24942834.165    24942831.540
 -24044151.627 9 -18735665.906 9  20377879.855    20377878.618
  -1355111.171 4  -1055927.910 4  24785506.223    24785501.066
   -699851.104 4   -545338.421 4  25068050.921    25068047.748
  -7185119.786 4  -5598770.712 4  24027462.658    24027460.108
  -1787282.994 4  -1392661.546 4  24734249.092    24734245.721
 99  1  2  0 57  0.0000000  0 10G 4G 2G 9G15G14G 7G24G16G27G26
 -17853930.834 6 -13912129.653 6  21649643.218    21649642.376
 -20680077.311 9 -16114312.741 7  21201695.878    21201694.963
 -13963854.658 6 -10880907.144 5  22497833.938    22497832.864
  -2438824.037 4  -1900350.082 4  24538098.482    24538096.041
   -651031.162 4   -507296.457 4  24933713.313    24933710.808
 -24028135.466 9 -18723185.769 9  20380927.601    20380926.397
  -1467975.235 4  -1143873.645 4  24764028.217    24764023.431
   -777147.136 4   -605569.004 4  25053342.625    25053338.995
  -7066448.420 4  -5506299.543 4  24050046.246    24050043.246
  -1714866.917 4  -1336233.451 4  24748029.598    24748026.389
 99  1  2  0 57 30.0000000  0 11G 4G 2G 9G15G14G 7G24G16G27G26G 5
 -17941192.481 6 -13980125.711 6  21633038.026    21633036.807
 -20639728.304 9 -16082871.961 7  21209374.032    21209373.178
 -14025774.647 6 -10929156.443 5  22486050.424    22486049.799
  -2337512.091 4  -1821405.660 4  24557376.385    24557375.427
   -698579.312 4   -544346.914 4  24924664.507    24924663.035
 -24011807.060 9 -18710462.321 9  20384034.563    20384033.419
  -1580811.418 4  -1231797.664 4  24742555.829    24742551.672
   -854357.477 4   -665732.880 4  25038649.405    25038647.916
  -6947695.912 4  -5413765.143 4  24072643.755    24072642.014
  -1642297.451 4  -1279685.822 4  24761839.131    24761836.403
        -0.60014        -0.03414  25227842.536    25227838.813
 99  1  2  0 58  0.0000000  0 11G 4G 2G 9G15G14G 7G24G16G27G26G 5
 -18028088.540 6 -14047836.887 6  21616502.381    21616501.095
 -20599031.475 9 -16051160.153 7  21217118.588    21217117.408
 -14087219.282 6 -10977035.327 5  22474358.071    22474357.301
  -2235944.176 4  -1742261.786 4  24576703.305    24576703.043
   -745737.756 4   -581093.690 4  24915691.059    24915688.987
 -23995181.250 9 -18697507.129 9  20387198.401    20387197.225
  -1693609.868 4  -1319692.283 4  24721090.163    24721086.905
   -931476.674 4   -725825.681 4  25023974.909    25023973.117
  -6828879.042 4  -5321180.559 4  24095253.122    24095251.136
  -1569582.733 4  -1223025.011 4  24775675.875    24775673.496
    -94416.270 4    -73570.609 4  25209876.362    25209872.701
 99  1  2  0 58 30.0000000  0 11G 4G 2G 9G15G14G 7G24G16G27G26G 5
 -18114603.432 6 -14115251.052 6  21600038.891    21600037.928
 -20557987.500 9 -16019177.842 7  21224929.083    21224927.796
 -14148178.542 6 -11024536.007 5  22462758.216    22462757.200
  -2134121.105 4  -1662919.078 4  24596079.067    24596078.637
   -792501.375 4   -617532.795 4  24906791.919    24906790.067
 -23978288.197 9 -18684343.696 9  20390413.143    20390411.894
  -1806378.475 4  -1407563.687 4  24699629.783    24699627.365
  -1008482.461 4   -785830.059 4  25009322.192    25009318.928
  -6709989.814 4  -5228539.581 4  24117877.856    24117875.271
  -1496726.553 4  -1166253.952 4  24789540.080    24789537.495
   -188841.321 4   -147148.479 4  25191907.523    25191904.869
 99  1  2  0 59  0.0000000  0 11G 4G 2G 9G15G14G 7G24G16G27G26G 5
 -18200713.554 7 -14182349.809 6  21583652.462    21583651.728
 -20516608.494 9 -15986934.467 7  21232802.997    21232801.855
 -14208652.276 6 -11071658.344 5  22451250.359    22451249.248
  -2032046.211 4  -1583380.171 4  24615503.042    24615502.811
   -838874.241 4   -653667.435 4  24897967.969    24897965.019
 -23961126.776 9 -18670971.147 9  20393678.842    20393677.586
  -1919123.949 4  -1495417.063 4  24678176.071    24678172.972
  -1085369.196 4   -845741.734 4  24994690.423    24994685.787
  -6591043.319 4  -5135854.064 4  24140512.625    24140509.448
  -1423747.384 4  -1109387.075 4  24803426.923    24803425.614
   -283267.867 4   -220727.551 4  25173939.281    25173935.339
 99  1  2  0 59 30.0000000  0 10G 4G 2G 9G14G 7G24G16G27G26G 5
 -18286419.170 7 -14249133.365 6  21567343.377    21567342.606
 -20474918.613 9 -15954448.851 7  21240736.354    21240735.192
 -14268642.042 6 -11118403.569 5  22439834.285    22439833.112
   -884878.262 4   -689514.654 4  24889212.922    24889210.515
 -23943712.252 9 -18657401.375 9  20396992.640    20396991.451
  -2031866.518 4  -1583268.152 4  24656721.665    24656718.364
  -1162146.624 4   -905568.221 4  24980080.281    24980075.228
  -6472058.026 4  -5043138.223 4  24163154.016    24163152.486
  -1350672.999 4  -1052445.996 4  24817333.741    24817331.682
   -377718.163 4   -294325.123 4  25155965.760    25155963.784
 99  1  2  1  0  0.0000000  0 11G 4G 2G 9G15G14G 7G24G16G27G26G 5
 -18371702.315 7 -14315587.724 6  21551114.578    21551113.498
 -20432908.802 9 -15921713.943 7  21248730.673    21248729.425
 -14328154.239 6 -11164776.662 5  22428509.643    22428508.311
        -0.16614        -0.87414  24654488.404    24654487.768
   -930514.131 4   -725074.981 4  24880528.431    24880526.548
 -23926047.145 9 -18643636.341 9  20400354.204    20400353.044
  -2144596.370 4  -1671109.359 4  24635269.647    24635265.673
  -1238809.958 4   -965305.803 4  24965491.045    24965487.174
  -6353017.782 4  -4950379.604 4  24185807.276    24185805.048
  -1277498.998 4   -995427.305 4  24831258.512    24831255.808
   -472187.235 4   -367937.359 4  25137988.144    25137985.042
 99  1  2  1  0 30.0000000  0 10G 4G 2G 9G14G 7G24G16G27G26G 5
 -18456563.974 7 -14381713.653 6  21534965.779    21534964.912
 -20390572.640 9 -15888724.730 7  21256786.878    21256785.626
 -14387216.333 6 -11210799.027 5  22417270.510    22417268.998
   -975799.540 4   -760362.235 4  24871911.053    24871908.885
 -23908124.347 9 -18629670.511 9  20403764.812    20403763.680
  -2257312.827 4  -1758940.185 4  24613819.971    24613816.393
  -1315365.998 4  -1024959.749 4  24950923.072    24950917.932
  -6233930.067 4  -4857583.970 4  24208468.508    24208466.841
  -1204224.818 4   -938330.562 4  24845202.235    24845198.151
   -566675.668 4   -441564.665 4  25120007.279    25120004.832
 99  1  2  1  1  0.0000000  0 10G 4G 2G 9G14G 7G24G16G27G26G 5
 -18541000.007 7 -14447507.924 6  21518898.084    21518897.120
 -20347883.296 9 -15855460.312 7  21264910.548    21264909.117
 -14445830.493 6 -11256472.350 5  22406116.374    22406115.230
  -1020730.745 4   -795373.479 4  24863360.893    24863358.865
 -23889918.622 9 -18615484.217 9  20407229.138    20407228.080
  -2369987.326 4  -1846738.287 4  24592378.434    24592375.239
  -1391806.795 4  -1084523.901 4  24936376.501    24936372.697
  -6114790.400 4  -4764747.902 4  24231140.369    24231136.849
  -1130839.757 4   -881147.405 4  24859166.236    24859162.249
   -661195.897 4   -515216.823 4  25102019.438    25102017.231
 99  1  2  1  1 30.0000000  0 11G 4G 2G 9G15G14G 7G24G16G27G26G 5
 -18625008.862 7 -14512969.332 6  21502911.638    21502910.963
 -20304819.306 9 -15821903.963 7  21273105.263    21273103.763
 -14503993.750 6 -11301794.323 5  22395048.367    22395046.840
        -0.00214        -0.22414  24713312.924    24713312.497
  -1065288.955 4   -830094.095 4  24854881.661    24854879.432
 -23871425.363 9 -18601073.873 9  20410748.193    20410747.255
  -2482605.049 4  -1934492.168 4  24570947.910    24570944.977
  -1468114.381 4  -1143984.279 4  24921855.346    24921851.917
  -5995586.698 4  -4671861.917 4  24253824.133    24253821.676
  -1057330.843 4   -823867.764 4  24873154.346    24873150.937
   -755746.268 4   -588892.496 4  25084028.250    25084026.255
 99  1  2  1  2  0.0000000  0 10G 4G 2G 9G14G 7G24G16G27G26G 5
 -18708604.172 7 -14578108.496 7  21487004.199    21487003.278
 -20261392.772 9 -15788065.111 7  21281369.030    21281367.600
 -14561715.422 6 -11346772.197 5  22384064.505    22384063.097
  -1109467.525 4   -864518.866 4  24846474.968    24846472.973
 -23852644.892 9 -18586439.726 9  20414321.880    20414320.916
  -2595180.494 4  -2022213.183 4  24549523.791    24549522.089
  -1544282.807 4  -1203336.221 4  24907360.366    24907358.044
  -5876326.211 4  -4578931.623 4  24276518.193    24276515.671
   -983714.071 4   -766504.054 4  24887164.080    24887161.058
   -850336.000 4   -662598.846 4  25066027.048    25066025.768
 99  1  2  1  2 30.0000000  0 10G 4G 2G 9G14G 7G24G16G27G26G 5
 -18791793.701 7 -14642931.466 7  21471173.781    21471172.917
 -20217620.001 9 -15753956.463 7  21289698.501    21289697.491
 -14618973.009 6 -11391388.443 5  22373168.679    22373167.251
  -1153250.277 4   -898635.205 4  24838143.292    24838140.830
 -23833576.425 9 -18571581.168 9  20417950.477    20417949.336
  -2707717.835 4  -2109904.458 4  24528109.533    24528107.033
  -1620286.263 4  -1262559.612 4  24892896.922    24892894.676
  -5757002.336 4  -4485951.995 4  24299226.129    24299222.171
   -909995.962 4   -709061.411 4  24901191.267    24901189.145
   -944969.507 4   -736339.332 4  25048019.279    25048017.407
 99  1  2  1  3  0.0000000  0 11G 4G 2G 9G15G14G 7G24G16G27G26G 5
 -18874575.727 7 -14707436.903 7  21455420.658    21455420.184
 -20173504.426 9 -15719580.690 7  21298093.544    21298092.661
 -14675739.774 6 -11435622.231 5  22362366.151    22362364.813
        -0.39414        -0.91014  24772547.529    24772546.303
  -1196611.106 4   -932422.804 4  24829892.417    24829889.882
 -23814231.208 9 -18556506.962 9  20421631.790    20421630.563
  -2820212.574 4  -2197562.558 4  24506702.736    24506700.314
  -1696116.461 4  -1321648.025 4  24878466.998    24878464.715
  -5637606.431 4  -4392916.270 4  24321945.779    24321943.585
   -836186.079 4   -651547.234 4  24915237.632    24915234.540
  -1039655.425 4   -810120.658 4  25030001.713    25030000.608
 99  1  2  1  3 30.0000000  0  9G 4G 2G 9G14G 7G24G27G26G 5
 -18956951.523 7 -14771625.801 7  21439744.937    21439744.410
 -20129065.387 9 -15684952.867 7  21306550.092    21306549.042
 -14732012.131 6 -11479470.763 5  22351657.841    22351656.507
  -1239544.427 4   -965877.287 4  24821721.706    24821718.812
 -23794614.309 9 -18541221.056 9  20425364.706    20425363.683
  -2932678.097 4  -2285197.903 4  24485300.900    24485297.886
  -5518144.344 4  -4299828.941 4  24344677.909    24344675.177
   -762296.163 4   -593970.686 4  24929298.140    24929294.319
  -1134393.238 4   -883942.393 4  25011974.550    25011972.781
 99  1  2  1  4  0.0000000  0 11G 4G 2G 9G16G14G 7G24G27G26G 5G 8
 -19038936.256 7 -14835509.974 7  21424143.918    21424143.225
 -20084315.002 9 -15650082.441 7  21315065.682    21315064.497
 -14787796.988 6 -11522939.419 5  22341042.348    22341040.964
         0.44714        -0.33314  24849696.632    24849692.056
  -1282066.858 4   -999011.620 4  24813630.439    24813627.620
 -23774739.864 9 -18525734.463 9  20429146.705    20429145.700
  -3045115.710 4  -2372811.510 4  24463903.537    24463902.027
  -5398620.754 4  -4206693.643 4  24367423.132    24367419.874
   -688332.263 4   -536336.499 4  24943372.901    24943370.086
  -1229176.096 4   -957799.210 4  24993937.182    24993935.556
        -0.88014        -0.96614  24855216.497    24855213.647
